,,Stat6,,Stat2,,Stat8,,Stat9,,Stat10,,Wind1,,Wind1,
time,status,PA1M_AVG,status,PR1M_SUM,status,RH1M_AVG,status,SR1M_AVG,status,TA1M_AVG,status,W1dAve1m,status,W1sAve1m,
2004-08-05, 00:00:00,VALID,917.952,VALID,0,VALID,100,VALID,0,VALID,18.9038,VALID,132,VALID,1.57885,
2004-08-05, 00:01:00,VALID,917.947,VALID,0,VALID,100,VALID,0.0169808,VALID,18.8814,VALID,131,VALID,1.61966,
2004-08-05, 00:02:00,VALID,917.939,VALID,0,VALID,100,VALID,0.0169808,VALID,18.8392,VALID,127,VALID,1.3859,
2004-08-05, 00:03:00,VALID,917.957,VALID,0,VALID,100,VALID,0.0339617,VALID,18.8136,VALID,109,VALID,1.09737,
2004-08-05, 00:04:00,VALID,917.955,VALID,0,VALID,100,VALID,0.0169808,VALID,18.7714,VALID,78,VALID,1.08203,
2004-08-05, 00:05:00,VALID,917.956,VALID,0,VALID,100,VALID,0.0169808,VALID,18.7398,VALID,91,VALID,1.10004,
2004-08-05, 00:06:00,VALID,917.96,VALID,0,VALID,100,VALID,0.0339617,VALID,18.7108,VALID,80,VALID,0.778274,
2004-08-05, 00:07:00,VALID,917.946,VALID,0,VALID,100,VALID,0,VALID,18.685,VALID,84,VALID,0.892045,
2004-08-05, 00:08:00,VALID,917.932,VALID,0,VALID,100,VALID,-0.0509425,VALID,18.6472,VALID,106,VALID,1.2141,
2004-08-05, 00:09:00,VALID,917.923,VALID,0,VALID,100,VALID,-0.101885,VALID,18.6384,VALID,120,VALID,1.32489,
2004-08-05, 00:10:00,VALID,917.916,VALID,0,VALID,100,VALID,-0.101885,VALID,18.5957,VALID,140,VALID,1.1416,
2004-08-05, 00:11:00,VALID,917.921,VALID,0,VALID,100,VALID,-0.118866,VALID,18.5838,VALID,132,VALID,1.5798,
2004-08-05, 00:12:00,VALID,917.924,VALID,0,VALID,100,VALID,-0.118866,VALID,18.5637,VALID,127,VALID,1.42081,
2004-08-05, 00:13:00,VALID,917.92,VALID,0,VALID,100,VALID,-0.101885,VALID,18.5542,VALID,128,VALID,1.33249,
2004-08-05, 00:14:00,VALID,917.899,VALID,0,VALID,100,VALID,-0.101885,VALID,18.5287,VALID,128,VALID,1.48958,
2004-08-05, 00:15:00,VALID,917.905,VALID,0,VALID,100,VALID,-0.118866,VALID,18.513,VALID,124,VALID,1.40931,
2004-08-05, 00:16:00,VALID,917.877,VALID,0,VALID,100,VALID,-0.118866,VALID,18.4934,VALID,121,VALID,1.67264,
2004-08-05, 00:17:00,VALID,917.857,VALID,0,VALID,100,VALID,-0.0849042,VALID,18.477,VALID,108,VALID,1.43586,
2004-08-05, 00:18:00,VALID,917.84,VALID,0,VALID,100,VALID,-0.0849042,VALID,18.4639,VALID,107,VALID,1.08467,
2004-08-05, 00:19:00,VALID,917.842,VALID,0,VALID,100,VALID,-0.101885,VALID,18.4512,VALID,121,VALID,1.20621,
2004-08-05, 00:20:00,VALID,917.841,VALID,0,VALID,100,VALID,-0.118866,VALID,18.4122,VALID,115,VALID,1.35367,
2004-08-05, 00:21:00,VALID,917.848,VALID,0,VALID,100,VALID,-0.101885,VALID,18.3995,VALID,110,VALID,1.42894,
2004-08-05, 00:22:00,VALID,917.839,VALID,0,VALID,100,VALID,-0.0849042,VALID,18.3668,VALID,86,VALID,1.05164,
2004-08-05, 00:23:00,VALID,917.828,VALID,0,VALID,100,VALID,-0.0509425,VALID,18.3509,VALID,69,VALID,0.90997,
2004-08-05, 00:24:00,VALID,917.838,VALID,0,VALID,100,VALID,-0.0339617,VALID,18.3333,VALID,84,VALID,0.653011,
2004-08-05, 00:25:00,VALID,917.808,VALID,0,VALID,100,VALID,-0.0169808,VALID,18.3214,VALID,64,VALID,0.93407,
2004-08-05, 00:26:00,VALID,917.81,VALID,0,VALID,100,VALID,-0.0339617,VALID,18.2953,VALID,61,VALID,0.738372,
2004-08-05, 00:27:00,VALID,917.807,VALID,0,VALID,100,VALID,-0.0509425,VALID,18.2697,VALID,68,VALID,0.890234,
2004-08-05, 00:28:00,VALID,917.796,VALID,0,VALID,100,VALID,-0.0169808,VALID,18.2503,VALID,55,VALID,1.01914,
2004-08-05, 00:29:00,VALID,917.787,VALID,0,VALID,100,VALID,-0.0339617,VALID,18.2275,VALID,59,VALID,0.624112,
2004-08-05, 00:30:00,VALID,917.781,VALID,0,VALID,100,VALID,-0.0509425,VALID,18.1952,VALID,82,VALID,0.589571,
2004-08-05, 00:31:00,VALID,917.77,VALID,0,VALID,100,VALID,-0.0509425,VALID,18.1759,VALID,84,VALID,0.867867,
2004-08-05, 00:32:00,VALID,917.766,VALID,0,VALID,100,VALID,-0.0509425,VALID,18.153,VALID,88,VALID,0.793576,
2004-08-05, 00:33:00,VALID,917.761,VALID,0,VALID,100,VALID,-0.0169808,VALID,18.144,VALID,101,VALID,0.982851,
2004-08-05, 00:34:00,VALID,917.761,VALID,0,VALID,100,VALID,-0.0339617,VALID,18.1212,VALID,84,VALID,0.934451,
2004-08-05, 00:35:00,VALID,917.765,VALID,0,VALID,100,VALID,-0.0339617,VALID,18.0959,VALID,77,VALID,0.78418,
2004-08-05, 00:36:00,VALID,917.747,VALID,0,VALID,100,VALID,-0.0679233,VALID,18.0438,VALID,81,VALID,0.899368,
2004-08-05, 00:37:00,VALID,917.735,VALID,0,VALID,100,VALID,-0.0509425,VALID,18.0244,VALID,80,VALID,1.02126,
2004-08-05, 00:38:00,VALID,917.722,VALID,0,VALID,100,VALID,-0.0169808,VALID,17.9926,VALID,72,VALID,0.904212,
2004-08-05, 00:39:00,VALID,917.697,VALID,0,VALID,100,VALID,-0.0339617,VALID,17.9596,VALID,55,VALID,0.933507,
2004-08-05, 00:40:00,VALID,917.684,VALID,0,VALID,100,VALID,-0.0169808,VALID,17.9764,VALID,54,VALID,1.00486,
2004-08-05, 00:41:00,VALID,917.682,VALID,0,VALID,100,VALID,-0.0509425,VALID,17.9993,VALID,59,VALID,0.913491,
2004-08-05, 00:42:00,VALID,917.655,VALID,0,VALID,100,VALID,0,VALID,18.0053,VALID,79,VALID,0.781771,
2004-08-05, 00:43:00,VALID,917.654,VALID,0,VALID,100,VALID,-0.0509425,VALID,18.0313,VALID,77,VALID,0.7883,
2004-08-05, 00:44:00,VALID,917.642,VALID,0,VALID,100,VALID,-0.0339617,VALID,18.0308,VALID,83,VALID,0.893483,
2004-08-05, 00:45:00,VALID,917.634,VALID,0,VALID,100,VALID,-0.0509425,VALID,18.0408,VALID,77,VALID,0.96224,
2004-08-05, 00:46:00,VALID,917.632,VALID,0,VALID,100,VALID,-0.0339617,VALID,18.0281,VALID,74,VALID,0.941406,
2004-08-05, 00:47:00,VALID,917.617,VALID,0,VALID,100,VALID,-0.0169808,VALID,18.0154,VALID,72,VALID,0.916481,
2004-08-05, 00:48:00,VALID,917.606,VALID,0,VALID,100,VALID,-0.0509425,VALID,17.9893,VALID,83,VALID,0.857777,
2004-08-05, 00:49:00,VALID,917.582,VALID,0,VALID,100,VALID,-0.0509425,VALID,17.967,VALID,96,VALID,0.850675,
2004-08-05, 00:50:00,VALID,917.555,VALID,0,VALID,100,VALID,-0.0509425,VALID,17.9444,VALID,95,VALID,0.809126,
2004-08-05, 00:51:00,VALID,917.545,VALID,0,VALID,100,VALID,-0.0339617,VALID,17.9119,VALID,94,VALID,0.976935,
2004-08-05, 00:52:00,VALID,917.539,VALID,0,VALID,100,VALID,-0.0339617,VALID,17.8736,VALID,104,VALID,0.989984,
2004-08-05, 00:53:00,VALID,917.529,VALID,0,VALID,100,VALID,-0.0509425,VALID,17.8508,VALID,100,VALID,1.23855,
2004-08-05, 00:54:00,VALID,917.527,VALID,0,VALID,100,VALID,-0.0509425,VALID,17.8547,VALID,109,VALID,1.22947,
2004-08-05, 00:55:00,VALID,917.523,VALID,0,VALID,100,VALID,0,VALID,17.8475,VALID,105,VALID,1.15207,
2004-08-05, 00:56:00,VALID,917.52,VALID,0,VALID,100,VALID,-0.0339617,VALID,17.8349,VALID,120,VALID,1.34175,
2004-08-05, 00:57:00,VALID,917.528,VALID,0,VALID,100,VALID,0,VALID,17.8577,VALID,131,VALID,1.5768,
2004-08-05, 00:58:00,VALID,917.536,VALID,0,VALID,100,VALID,-0.0509425,VALID,17.89,VALID,134,VALID,1.70194,
2004-08-05, 00:59:00,VALID,917.519,VALID,0,VALID,100,VALID,-0.0169808,VALID,17.9056,VALID,137,VALID,1.39435,
2004-08-05, 01:00:00,VALID,917.521,VALID,0,VALID,100,VALID,-0.0169808,VALID,17.9156,VALID,134,VALID,1.75934,
2004-08-05, 01:01:00,VALID,917.488,VALID,0,VALID,100,VALID,-0.0509425,VALID,17.922,VALID,133,VALID,1.92533,
2004-08-05, 01:02:00,VALID,917.485,VALID,0,VALID,100,VALID,-0.0169808,VALID,17.9414,VALID,130,VALID,1.7381,
2004-08-05, 01:03:00,VALID,917.48,VALID,0,VALID,100,VALID,-0.0679233,VALID,17.964,VALID,123,VALID,1.13393,
2004-08-05, 01:04:00,VALID,917.482,VALID,0,VALID,100,VALID,-0.0509425,VALID,17.9637,VALID,129,VALID,1.38225,
2004-08-05, 01:05:00,VALID,917.469,VALID,0,VALID,100,VALID,-0.0679233,VALID,17.9379,VALID,122,VALID,1.41146,
2004-08-05, 01:06:00,VALID,917.469,VALID,0,VALID,100,VALID,-0.0339617,VALID,17.9483,VALID,128,VALID,1.37909,
2004-08-05, 01:07:00,VALID,917.475,VALID,0,VALID,100,VALID,0,VALID,17.9315,VALID,117,VALID,1.07794,
2004-08-05, 01:08:00,VALID,917.482,VALID,0,VALID,100,VALID,-0.0169808,VALID,17.9352,VALID,120,VALID,1.14705,
2004-08-05, 01:09:00,VALID,917.473,VALID,0,VALID,100,VALID,0.0169808,VALID,17.9384,VALID,108,VALID,1.25062,
2004-08-05, 01:10:00,VALID,917.464,VALID,0,VALID,100,VALID,0.0169808,VALID,17.9255,VALID,94,VALID,0.833705,
2004-08-05, 01:11:00,VALID,917.47,VALID,0,VALID,100,VALID,0.0169808,VALID,17.9029,VALID,96,VALID,1.00657,
2004-08-05, 01:12:00,VALID,917.462,VALID,0,VALID,99.9926,VALID,0.0339617,VALID,17.8801,VALID,108,VALID,0.855945,
2004-08-05, 01:13:00,VALID,917.446,VALID,0,VALID,99.957,VALID,0,VALID,17.8575,VALID,98,VALID,0.808117,
2004-08-05, 01:14:00,VALID,917.438,VALID,0,VALID,99.9634,VALID,0.0339617,VALID,17.8411,VALID,114,VALID,0.788681,
2004-08-05, 01:15:00,VALID,917.404,VALID,0,VALID,99.8642,VALID,-0.0169808,VALID,17.8222,VALID,88,VALID,0.877131,
2004-08-05, 01:16:00,VALID,917.399,VALID,0,VALID,99.779,VALID,0,VALID,17.7899,VALID,95,VALID,1.10215,
2004-08-05, 01:17:00,VALID,917.38,VALID,0,VALID,99.8566,VALID,0,VALID,17.7864,VALID,90,VALID,1.06808,
2004-08-05, 01:18:00,VALID,917.362,VALID,0,VALID,99.7485,VALID,0.0169808,VALID,17.7701,VALID,111,VALID,1.16276,
2004-08-05, 01:19:00,VALID,917.375,VALID,0,VALID,99.5895,VALID,0.0509425,VALID,17.7604,VALID,109,VALID,1.13636,
2004-08-05, 01:20:00,VALID,917.372,VALID,0,VALID,99.4929,VALID,0.0169808,VALID,17.7574,VALID,98,VALID,0.986235,
2004-08-05, 01:21:00,VALID,917.367,VALID,0,VALID,99.3899,VALID,0.0169808,VALID,17.7413,VALID,115,VALID,1.09219,
2004-08-05, 01:22:00,VALID,917.369,VALID,0,VALID,99.236,VALID,0.0509425,VALID,17.7219,VALID,106,VALID,0.836328,
2004-08-05, 01:23:00,VALID,917.36,VALID,0,VALID,99.3238,VALID,-0.0509425,VALID,17.7127,VALID,100,VALID,1.25639,
2004-08-05, 01:24:00,VALID,917.359,VALID,0,VALID,99.1292,VALID,-0.101885,VALID,17.7108,VALID,104,VALID,1.04778,
2004-08-05, 01:25:00,VALID,917.356,VALID,0,VALID,99.1902,VALID,-0.0849042,VALID,17.6843,VALID,109,VALID,1.23602,
2004-08-05, 01:26:01,VALID,917.343,VALID,0,VALID,99.2055,VALID,-0.101885,VALID,17.6587,VALID,111,VALID,1.05851,
2004-08-05, 01:27:00,VALID,917.325,VALID,0,VALID,99.3784,VALID,-0.101885,VALID,17.646,VALID,122,VALID,1.4032,
2004-08-05, 01:28:00,VALID,917.33,VALID,0,VALID,99.5183,VALID,-0.101885,VALID,17.6301,VALID,115,VALID,1.4859,
2004-08-05, 01:29:00,VALID,917.336,VALID,0,VALID,99.6213,VALID,-0.101885,VALID,17.6045,VALID,123,VALID,1.47869,
2004-08-05, 01:30:00,VALID,917.347,VALID,0,VALID,99.8311,VALID,-0.101885,VALID,17.5819,VALID,127,VALID,1.64946,
2004-08-05, 01:31:00,VALID,917.354,VALID,0,VALID,99.8795,VALID,-0.101885,VALID,17.5462,VALID,116,VALID,1.22639,
2004-08-05, 01:32:00,VALID,917.361,VALID,0,VALID,99.9138,VALID,-0.118866,VALID,17.5139,VALID,126,VALID,1.08577,
2004-08-05, 01:33:00,VALID,917.356,VALID,0,VALID,99.9311,VALID,-0.118866,VALID,17.4885,VALID,121,VALID,1.44513,
2004-08-05, 01:34:00,VALID,917.339,VALID,0,VALID,99.9906,VALID,-0.118866,VALID,17.4687,VALID,85,VALID,1.12824,
2004-08-05, 01:35:00,VALID,917.335,VALID,0,VALID,99.8731,VALID,-0.101885,VALID,17.4528,VALID,93,VALID,1.03715,
2004-08-05, 01:36:00,VALID,917.327,VALID,0,VALID,99.8667,VALID,-0.101885,VALID,17.4306,VALID,90,VALID,1.33038,
2004-08-05, 01:37:00,VALID,917.321,VALID,0,VALID,99.8299,VALID,-0.0849042,VALID,17.4205,VALID,86,VALID,1.27274,
2004-08-05, 01:38:00,VALID,917.316,VALID,0,VALID,99.8527,VALID,-0.0339617,VALID,17.4228,VALID,103,VALID,1.33954,
2004-08-05, 01:39:00,VALID,917.299,VALID,0,VALID,99.8146,VALID,0.0339617,VALID,17.4252,VALID,109,VALID,1.30114,
2004-08-05, 01:40:00,VALID,917.297,VALID,0,VALID,99.723,VALID,0.0169808,VALID,17.425,VALID,117,VALID,1.12891,
2004-08-05, 01:41:00,VALID,917.289,VALID,0,VALID,99.7091,VALID,0,VALID,17.4383,VALID,126,VALID,1.45969,
2004-08-05, 01:42:01,VALID,917.289,VALID,0,VALID,99.7294,VALID,0.0339617,VALID,17.4542,VALID,125,VALID,1.47869,
2004-08-05, 01:43:00,VALID,917.278,VALID,0,VALID,99.559,VALID,0,VALID,17.4676,VALID,119,VALID,1.42587,
2004-08-05, 01:44:00,VALID,917.262,VALID,0,VALID,99.5832,VALID,0,VALID,17.4678,VALID,128,VALID,1.50923,
2004-08-05, 01:45:00,VALID,917.257,VALID,0,VALID,99.6251,VALID,-0.0169808,VALID,17.4713,VALID,124,VALID,1.56836,
2004-08-05, 01:46:00,VALID,917.245,VALID,0,VALID,99.5272,VALID,0,VALID,17.4416,VALID,123,VALID,1.42206,
2004-08-05, 01:47:00,VALID,917.232,VALID,0,VALID,99.5501,VALID,0,VALID,17.4192,VALID,119,VALID,1.25994,
2004-08-05, 01:48:01,VALID,917.216,VALID,0,VALID,99.5641,VALID,0,VALID,17.3869,VALID,116,VALID,1.50316,
2004-08-05, 01:49:01,VALID,917.215,VALID,0,VALID,99.8942,VALID,0,VALID,17.374,VALID,116,VALID,1.95858,
2004-08-05, 01:50:00,VALID,917.225,VALID,0,VALID,99.9896,VALID,0.0169808,VALID,17.3768,VALID,124,VALID,1.62049,
2004-08-05, 01:51:00,VALID,917.228,VALID,0,VALID,99.9827,VALID,0,VALID,17.3871,VALID,113,VALID,1.69368,
2004-08-05, 01:52:00,VALID,917.231,VALID,0,VALID,99.8934,VALID,0,VALID,17.3936,VALID,115,VALID,1.45349,
2004-08-05, 01:53:00,VALID,917.218,VALID,0,VALID,99.8591,VALID,0,VALID,17.3805,VALID,124,VALID,1.41914,
2004-08-05, 01:54:00,VALID,917.215,VALID,0,VALID,99.7574,VALID,-0.0169808,VALID,17.3906,VALID,113,VALID,1.33594,
2004-08-05, 01:55:01,VALID,917.222,VALID,0,VALID,99.6595,VALID,0,VALID,17.3904,VALID,125,VALID,1.04826,
2004-08-05, 01:56:00,VALID,917.211,VALID,0,VALID,99.5755,VALID,0,VALID,17.3805,VALID,123,VALID,1.31719,
2004-08-05, 01:57:00,VALID,917.205,VALID,0,VALID,99.4789,VALID,-0.0169808,VALID,17.3846,VALID,106,VALID,0.808594,
2004-08-05, 01:58:00,VALID,917.205,VALID,0,VALID,99.3721,VALID,0,VALID,17.3648,VALID,88,VALID,0.977325,
2004-08-05, 01:59:01,VALID,917.195,VALID,0,VALID,99.2551,VALID,0,VALID,17.3555,VALID,111,VALID,1.06632,
2004-08-05, 02:00:00,VALID,917.195,VALID,0,VALID,99.1648,VALID,-0.0169808,VALID,17.3288,VALID,115,VALID,1.18643,
2004-08-05, 02:01:00,VALID,917.188,VALID,0,VALID,99.0885,VALID,0.101885,VALID,17.3215,VALID,107,VALID,0.73165,
2004-08-05, 02:02:00,VALID,917.19,VALID,0,VALID,99.0796,VALID,0.101885,VALID,17.3116,VALID,113,VALID,0.91061,
2004-08-05, 02:03:01,VALID,917.19,VALID,0,VALID,99.2882,VALID,0.101885,VALID,17.312,VALID,129,VALID,1.34766,
2004-08-05, 02:04:00,VALID,917.177,VALID,0,VALID,99.3225,VALID,0.101885,VALID,17.3282,VALID,130,VALID,1.25618,
2004-08-05, 02:05:00,VALID,917.17,VALID,0,VALID,99.4624,VALID,0.101885,VALID,17.3342,VALID,133,VALID,1.42607,
2004-08-05, 02:06:00,VALID,917.164,VALID,0,VALID,99.3823,VALID,0.101885,VALID,17.3566,VALID,132,VALID,1.61814,
2004-08-05, 02:07:01,VALID,917.138,VALID,0,VALID,99.2971,VALID,0.101885,VALID,17.3824,VALID,133,VALID,1.59487,
2004-08-05, 02:08:01,VALID,917.126,VALID,0,VALID,99.2754,VALID,0.0509425,VALID,17.4125,VALID,124,VALID,1.41697,
2004-08-05, 02:09:00,VALID,917.121,VALID,0,VALID,99.1038,VALID,0,VALID,17.4037,VALID,124,VALID,1.36822,
2004-08-05, 02:10:00,VALID,917.108,VALID,0,VALID,99.0237,VALID,0,VALID,17.3906,VALID,128,VALID,1.45645,
2004-08-05, 02:11:00,VALID,917.103,VALID,0,VALID,99.0313,VALID,0,VALID,17.3876,VALID,132,VALID,1.59819,
2004-08-05, 02:12:00,VALID,917.109,VALID,0,VALID,99.0211,VALID,0,VALID,17.3906,VALID,133,VALID,1.6756,
2004-08-05, 02:13:00,VALID,917.099,VALID,0,VALID,98.9054,VALID,0,VALID,17.3975,VALID,130,VALID,1.47093,
2004-08-05, 02:14:00,VALID,917.094,VALID,0,VALID,98.7617,VALID,0,VALID,17.368,VALID,129,VALID,1.32366,
2004-08-05, 02:15:00,VALID,917.089,VALID,0,VALID,98.5506,VALID,-0.0169808,VALID,17.3615,VALID,126,VALID,1.1263,
2004-08-05, 02:16:00,VALID,917.089,VALID,0,VALID,98.5227,VALID,0,VALID,17.3163,VALID,123,VALID,1.30804,
2004-08-05, 02:17:00,VALID,917.076,VALID,0,VALID,98.5201,VALID,0,VALID,17.2974,VALID,111,VALID,1.0189,
2004-08-05, 02:18:00,VALID,917.078,VALID,0,VALID,98.5214,VALID,-0.0339617,VALID,17.2552,VALID,121,VALID,0.899306,
2004-08-05, 02:19:00,VALID,917.074,VALID,0,VALID,98.5761,VALID,-0.0169808,VALID,17.2393,VALID,124,VALID,1.44313,
2004-08-05, 02:20:00,VALID,917.059,VALID,0,VALID,98.5722,VALID,-0.0169808,VALID,17.2385,VALID,128,VALID,1.24126,
2004-08-05, 02:21:00,VALID,917.06,VALID,0,VALID,98.4273,VALID,0,VALID,17.2225,VALID,125,VALID,1.09851,
2004-08-05, 02:22:00,VALID,917.066,VALID,0,VALID,98.3942,VALID,0,VALID,17.2129,VALID,125,VALID,1.0599,
2004-08-05, 02:23:01,VALID,917.06,VALID,0,VALID,98.4807,VALID,0,VALID,17.2096,VALID,115,VALID,1.12891,
2004-08-05, 02:24:00,VALID,917.079,VALID,0,VALID,98.4438,VALID,-0.0339617,VALID,17.22,VALID,134,VALID,0.827567,
2004-08-05, 02:25:00,VALID,917.089,VALID,0,VALID,98.3599,VALID,0,VALID,17.2073,VALID,114,VALID,0.916159,
2004-08-05, 02:26:00,VALID,917.087,VALID,0,VALID,98.5048,VALID,0,VALID,17.2006,VALID,127,VALID,1.10476,
2004-08-05, 02:27:00,VALID,917.086,VALID,0,VALID,98.5023,VALID,0,VALID,17.1971,VALID,127,VALID,0.802083,
2004-08-05, 02:28:00,VALID,917.081,VALID,0,VALID,98.5557,VALID,-0.0339617,VALID,17.2006,VALID,122,VALID,1.17315,
2004-08-05, 02:29:00,VALID,917.079,VALID,0,VALID,98.5926,VALID,-0.0169808,VALID,17.2038,VALID,124,VALID,1.06676,
2004-08-05, 02:30:00,VALID,917.07,VALID,0,VALID,98.6816,VALID,0,VALID,17.2202,VALID,124,VALID,1.30188,
2004-08-05, 02:31:01,VALID,917.065,VALID,0,VALID,98.5036,VALID,0,VALID,17.2195,VALID,113,VALID,1.06287,
2004-08-05, 02:32:00,VALID,917.074,VALID,0,VALID,98.5672,VALID,-0.0169808,VALID,17.2301,VALID,115,VALID,1.46317,
2004-08-05, 02:33:00,VALID,917.077,VALID,0,VALID,98.6409,VALID,-0.0339617,VALID,17.2395,VALID,106,VALID,1.47187,
2004-08-05, 02:34:00,VALID,917.097,VALID,0,VALID,98.6396,VALID,-0.0679233,VALID,17.2522,VALID,106,VALID,1.31566,
2004-08-05, 02:35:00,VALID,917.103,VALID,0,VALID,98.6282,VALID,-0.0339617,VALID,17.2651,VALID,115,VALID,1.51953,
2004-08-05, 02:36:00,VALID,917.115,VALID,0,VALID,98.5023,VALID,-0.0339617,VALID,17.278,VALID,113,VALID,1.4707,
2004-08-05, 02:37:00,VALID,917.132,VALID,0,VALID,98.3879,VALID,-0.0169808,VALID,17.2785,VALID,117,VALID,1.41939,
2004-08-05, 02:38:00,VALID,917.141,VALID,0,VALID,98.3573,VALID,-0.0509425,VALID,17.2718,VALID,120,VALID,1.57485,
2004-08-05, 02:39:01,VALID,917.164,VALID,0,VALID,98.2327,VALID,-0.0339617,VALID,17.2527,VALID,123,VALID,1.25941,
2004-08-05, 02:40:00,VALID,917.16,VALID,0,VALID,98.2861,VALID,-0.0339617,VALID,17.2529,VALID,107,VALID,1.24406,
2004-08-05, 02:41:00,VALID,917.16,VALID,0,VALID,98.2048,VALID,-0.0169808,VALID,17.246,VALID,93,VALID,1.02271,
2004-08-05, 02:42:01,VALID,917.152,VALID,0,VALID,98.0344,VALID,-0.0339617,VALID,17.2296,VALID,90,VALID,1.0651,
2004-08-05, 02:43:00,VALID,917.154,VALID,0,VALID,97.9619,VALID,-0.0169808,VALID,17.2004,VALID,101,VALID,1.24572,
2004-08-05, 02:44:00,VALID,917.142,VALID,0,VALID,97.8907,VALID,-0.0169808,VALID,17.1711,VALID,110,VALID,1.39577,
2004-08-05, 02:45:01,VALID,917.139,VALID,0,VALID,97.7533,VALID,0,VALID,17.1621,VALID,109,VALID,1.37865,
2004-08-05, 02:46:00,VALID,917.153,VALID,0,VALID,97.9542,VALID,-0.0169808,VALID,17.1427,VALID,122,VALID,1.58984,
2004-08-05, 02:47:00,VALID,917.17,VALID,0,VALID,97.9886,VALID,0.0169808,VALID,17.1231,VALID,120,VALID,1.381,
2004-08-05, 02:48:00,VALID,917.171,VALID,0,VALID,98.1831,VALID,-0.0169808,VALID,17.1102,VALID,119,VALID,1.32449,
2004-08-05, 02:49:00,VALID,917.166,VALID,0,VALID,98.3624,VALID,0,VALID,17.107,VALID,122,VALID,1.5245,
2004-08-05, 02:50:00,VALID,917.177,VALID,0,VALID,98.3688,VALID,0,VALID,17.1302,VALID,128,VALID,1.64577,
2004-08-05, 02:51:00,VALID,917.171,VALID,0,VALID,98.3662,VALID,0,VALID,17.1264,VALID,129,VALID,1.50495,
2004-08-05, 02:52:00,VALID,917.166,VALID,0,VALID,98.309,VALID,-0.0679233,VALID,17.1302,VALID,130,VALID,1.36222,
2004-08-05, 02:53:00,VALID,917.159,VALID,0,VALID,98.3141,VALID,-0.0169808,VALID,17.1206,VALID,129,VALID,1.47475,
2004-08-05, 02:54:01,VALID,917.154,VALID,0,VALID,98.3828,VALID,-0.101885,VALID,17.1046,VALID,130,VALID,1.80254,
2004-08-05, 02:55:00,VALID,917.152,VALID,0,VALID,98.4438,VALID,-0.0339617,VALID,17.1238,VALID,129,VALID,1.89571,
2004-08-05, 02:56:00,VALID,917.146,VALID,0,VALID,98.3434,VALID,-0.0679233,VALID,17.133,VALID,128,VALID,1.72017,
2004-08-05, 02:57:00,VALID,917.147,VALID,0,VALID,98.3141,VALID,-0.0339617,VALID,17.1494,VALID,125,VALID,1.89539,
2004-08-05, 02:58:00,VALID,917.119,VALID,0,VALID,98.173,VALID,-0.0339617,VALID,17.172,VALID,126,VALID,1.4776,
2004-08-05, 02:59:00,VALID,917.094,VALID,0,VALID,98.0038,VALID,-0.0509425,VALID,17.1754,VALID,124,VALID,1.81117,
2004-08-05, 03:00:00,VALID,917.077,VALID,0,VALID,98.0165,VALID,-0.0679233,VALID,17.1623,VALID,127,VALID,1.99143,
2004-08-05, 03:01:00,VALID,917.058,VALID,0,VALID,97.9364,VALID,-0.0339617,VALID,17.1657,VALID,131,VALID,1.93986,
2004-08-05, 03:02:00,VALID,917.042,VALID,0,VALID,97.8538,VALID,-0.0679233,VALID,17.1466,VALID,127,VALID,2.0794,
2004-08-05, 03:03:00,VALID,917.05,VALID,0,VALID,97.9301,VALID,-0.0679233,VALID,17.1337,VALID,124,VALID,1.99457,
2004-08-05, 03:04:01,VALID,917.041,VALID,0,VALID,98.0293,VALID,-0.0679233,VALID,17.1498,VALID,123,VALID,1.97781,
2004-08-05, 03:05:00,VALID,917.041,VALID,0,VALID,97.9237,VALID,-0.0509425,VALID,17.1593,VALID,130,VALID,1.9615,
2004-08-05, 03:06:00,VALID,917.044,VALID,0,VALID,97.794,VALID,-0.0679233,VALID,17.1464,VALID,136,VALID,1.94422,
2004-08-05, 03:07:00,VALID,917.039,VALID,0,VALID,97.7203,VALID,-0.0679233,VALID,17.1141,VALID,135,VALID,1.59487,
2004-08-05, 03:08:00,VALID,917.045,VALID,0,VALID,97.8334,VALID,-0.0509425,VALID,17.0562,VALID,124,VALID,1.55259,
2004-08-05, 03:09:00,VALID,917.041,VALID,0,VALID,97.8716,VALID,-0.101885,VALID,16.9947,VALID,119,VALID,1.39335,
2004-08-05, 03:10:00,VALID,917.039,VALID,0,VALID,98.0153,VALID,-0.0679233,VALID,16.9237,VALID,115,VALID,1.69368,
2004-08-05, 03:11:00,VALID,917.049,VALID,0,VALID,98.3548,VALID,-0.0509425,VALID,16.8723,VALID,120,VALID,1.65898,
2004-08-05, 03:12:00,VALID,917.059,VALID,0,VALID,98.618,VALID,-0.101885,VALID,16.84,VALID,118,VALID,1.57711,
2004-08-05, 03:13:01,VALID,917.078,VALID,0,VALID,98.7973,VALID,-0.0339617,VALID,16.7946,VALID,114,VALID,1.33739,
2004-08-05, 03:14:00,VALID,917.08,VALID,0,VALID,99.0071,VALID,-0.101885,VALID,16.7529,VALID,120,VALID,1.39825,
2004-08-05, 03:15:00,VALID,917.086,VALID,0,VALID,99.3009,VALID,-0.0679233,VALID,16.7105,VALID,124,VALID,1.57922,
2004-08-05, 03:16:00,VALID,917.103,VALID,0,VALID,99.6048,VALID,-0.0849042,VALID,16.7045,VALID,124,VALID,1.25133,
2004-08-05, 03:17:00,VALID,917.11,VALID,0,VALID,99.6442,VALID,-0.0509425,VALID,16.6752,VALID,121,VALID,1.34322,
2004-08-05, 03:18:00,VALID,917.125,VALID,0,VALID,99.718,VALID,-0.101885,VALID,16.6268,VALID,117,VALID,1.20349,
2004-08-05, 03:19:00,VALID,917.13,VALID,0,VALID,99.8871,VALID,-0.0849042,VALID,16.6046,VALID,123,VALID,1.28163,
2004-08-05, 03:20:01,VALID,917.157,VALID,0,VALID,99.9941,VALID,-0.101885,VALID,16.5883,VALID,116,VALID,1.32347,
2004-08-05, 03:21:00,VALID,917.176,VALID,0,VALID,99.9954,VALID,-0.0509425,VALID,16.5851,VALID,116,VALID,1.0565,
2004-08-05, 03:22:00,VALID,917.2,VALID,0,VALID,100,VALID,-0.0849042,VALID,16.582,VALID,124,VALID,1.06577,
2004-08-05, 03:23:01,VALID,917.202,VALID,0,VALID,99.999,VALID,-0.0509425,VALID,16.5657,VALID,127,VALID,1.24497,
2004-08-05, 03:24:00,VALID,917.208,VALID,0,VALID,100,VALID,-0.0679233,VALID,16.5719,VALID,126,VALID,1.15483,
2004-08-05, 03:25:00,VALID,917.218,VALID,0,VALID,99.968,VALID,-0.0679233,VALID,16.5621,VALID,126,VALID,0.988735,
2004-08-05, 03:26:01,VALID,917.21,VALID,0,VALID,99.9746,VALID,-0.0679233,VALID,16.5752,VALID,130,VALID,1.20258,
2004-08-05, 03:27:01,VALID,917.21,VALID,0,VALID,99.8438,VALID,-0.0849042,VALID,16.5786,VALID,119,VALID,1.04059,
2004-08-05, 03:28:01,VALID,917.206,VALID,0,VALID,99.765,VALID,-0.0679233,VALID,16.5756,VALID,121,VALID,1.04062,
2004-08-05, 03:29:00,VALID,917.214,VALID,0,VALID,99.6798,VALID,-0.0679233,VALID,16.5558,VALID,119,VALID,0.939862,
2004-08-05, 03:30:01,VALID,917.21,VALID,0,VALID,99.6556,VALID,-0.0509425,VALID,16.5528,VALID,112,VALID,0.899219,
2004-08-05, 03:31:01,VALID,917.207,VALID,0,VALID,99.8693,VALID,-0.101885,VALID,16.5558,VALID,122,VALID,1.34253,
2004-08-05, 03:32:00,VALID,917.205,VALID,0,VALID,99.8807,VALID,-0.0679233,VALID,16.5881,VALID,124,VALID,1.18857,
2004-08-05, 03:33:00,VALID,917.202,VALID,0,VALID,99.7383,VALID,-0.0509425,VALID,16.601,VALID,133,VALID,1.29535,
2004-08-05, 03:34:01,VALID,917.215,VALID,0,VALID,99.5437,VALID,-0.0169808,VALID,16.6143,VALID,127,VALID,1.09623,
2004-08-05, 03:35:01,VALID,917.219,VALID,0,VALID,99.3517,VALID,-0.0849042,VALID,16.5982,VALID,128,VALID,0.935724,